| time (UTC) | temp C | wind direction | speed KPH | gust KPH | rain 1hr cm | rain 24hr cm | rain mn cm | humidity % | barometer mb |
| 20260507105504 | 4 | 255 | 1.6 | 3.2 | 0.03 | 1.07 | 0.03 | 88 | 1014.0 |
| 20260507105004 | 4 | 260 | 0.0 | 3.2 | 0.03 | 1.09 | 0.03 | 88 | 1013.9 |
| 20260507104504 | 4 | 332 | 1.6 | 3.2 | 0.03 | 1.09 | 0.03 | 88 | 1014.1 |
| 20260507104004 | 4 | 28 | 0.0 | 1.6 | 0.03 | 1.09 | 0.03 | 88 | 1014.1 |
| 20260507103504 | 4 | 293 | 0.0 | 1.6 | 0.03 | 1.09 | 0.03 | 88 | 1013.9 |
| 20260507103004 | 4 | 279 | 0.0 | 1.6 | 0.03 | 1.09 | 0.03 | 88 | 1013.9 |
| 20260507102504 | 4 | 2 | 0.0 | 1.6 | 0.03 | 1.09 | 0.03 | 88 | 1013.9 |
| 20260507102006 | 4 | 1 | 0.0 | 0.0 | 0.03 | 1.09 | 0.03 | 89 | 1013.9 |
| 20260507101504 | 4 | 3 | 0.0 | 1.6 | 0.03 | 1.09 | 0.03 | 89 | 1013.9 |
| 20260507101004 | 4 | 266 | 0.0 | 4.8 | 0.03 | 1.09 | 0.03 | 89 | 1013.9 |
| 20260507100005 | 4 | 264 | 1.6 | 4.8 | 0.03 | 1.09 | 0.03 | 89 | 1013.8 |
| 20260507095004 | 4 | 263 | 0.0 | 0.0 | 0.00 | 1.07 | 0.00 | 89 | 1013.8 |
| 20260507094504 | 4 | 274 | 0.0 | 0.0 | 0.00 | 1.07 | 0.00 | 89 | 1013.9 |
| 20260507094004 | 4 | 263 | 0.0 | 0.0 | 0.00 | 1.07 | 0.00 | 88 | 1013.8 |
| 20260507093504 | 4 | 260 | 0.0 | 0.0 | 0.00 | 1.07 | 0.00 | 88 | 1013.9 |
| 20260507092504 | 4 | 267 | 0.0 | 0.0 | 0.00 | 1.09 | 0.00 | 89 | 1013.8 |
| 20260507092004 | 4 | 272 | 0.0 | 0.0 | 0.00 | 1.09 | 0.00 | 88 | 1013.8 |
| 20260507091504 | 4 | 259 | 0.0 | 0.0 | 0.00 | 1.09 | 0.00 | 88 | 1013.7 |
| 20260507091004 | 4 | 270 | 0.0 | 0.0 | 0.00 | 1.09 | 0.00 | 88 | 1013.7 |
| 20260507090503 | 4 | 263 | 0.0 | 0.0 | 0.00 | 1.09 | 0.00 | 88 | 1013.8 |
| 20260507085004 | 3 | 264 | 0.0 | 0.0 | 0.00 | 1.09 | 0.00 | 88 | 1013.6 |
| 20260507084504 | 3 | 260 | 0.0 | 0.0 | 0.00 | 1.09 | 0.00 | 88 | 1013.6 |
| 20260507084004 | 3 | 261 | 0.0 | 0.0 | 0.00 | 1.09 | 0.00 | 87 | 1013.7 |
| 20260507083504 | 3 | 263 | 0.0 | 0.0 | 0.00 | 1.09 | 0.00 | 87 | 1013.6 |
| 20260507083004 | 3 | 270 | 0.0 | 0.0 | 0.00 | 1.09 | 0.00 | 87 | 1013.6 |
| 20260507082504 | 3 | 258 | 0.0 | 0.0 | 0.00 | 1.09 | 0.00 | 87 | 1013.5 |
| 20260507082004 | 3 | 264 | 0.0 | 0.0 | 0.00 | 1.09 | 0.00 | 87 | 1013.6 |
| 20260507081004 | 3 | 256 | 0.0 | 0.0 | 0.00 | 1.09 | 0.00 | 87 | 1013.6 |
| 20260507080504 | 3 | 262 | 0.0 | 0.0 | 0.00 | 1.09 | 0.00 | 87 | 1013.6 |
| 20260507080004 | 3 | 260 | 0.0 | 0.0 | 0.00 | 1.09 | 0.00 | 87 | 1013.6 |
| 20260507075503 | 3 | 263 | 0.0 | 0.0 | 0.00 | 1.09 | 0.00 | 87 | 1013.5 |
| 20260507075004 | 3 | 265 | 0.0 | 0.0 | 0.00 | 1.09 | 0.00 | 87 | 1013.5 |
| 20260507074504 | 4 | 263 | 0.0 | 0.0 | 0.00 | 1.09 | 0.00 | 87 | 1013.5 |
| 20260507074004 | 4 | 263 | 0.0 | 0.0 | 0.00 | 1.09 | 0.00 | 87 | 1013.5 |
| 20260507073504 | 4 | 263 | 0.0 | 0.0 | 0.00 | 1.09 | 0.00 | 87 | 1013.5 |
| 20260507073004 | 4 | 260 | 0.0 | 0.0 | 0.00 | 1.12 | 0.00 | 87 | 1013.5 |
| 20260507072504 | 5 | 265 | 0.0 | 0.0 | 0.00 | 1.12 | 0.00 | 87 | 1013.5 |
| 20260507072004 | 5 | 265 | 0.0 | 0.0 | 0.00 | 1.12 | 0.00 | 87 | 1013.4 |
| 20260507071504 | 5 | 258 | 0.0 | 0.0 | 0.00 | 1.12 | 0.00 | 88 | 1013.4 |
| 20260507071004 | 5 | 264 | 0.0 | 0.0 | 0.00 | 1.12 | 0.00 | 88 | 1013.4 |
| 20260507070504 | 5 | 255 | 0.0 | 0.0 | 0.00 | 1.12 | 0.00 | 88 | 1013.4 |
| 20260507065505 | 5 | 263 | 0.0 | 0.0 | 0.00 | 1.12 | 0.00 | 87 | 1013.5 |
| 20260507065004 | 5 | 259 | 0.0 | 0.0 | 0.00 | 1.12 | 0.00 | 87 | 1013.6 |
| 20260507064504 | 5 | 256 | 0.0 | 0.0 | 0.00 | 1.12 | 0.00 | 87 | 1013.7 |
| 20260507064005 | 5 | 260 | 0.0 | 0.0 | 0.00 | 1.12 | 0.00 | 87 | 1013.7 |
| 20260507063504 | 5 | 254 | 0.0 | 0.0 | 0.00 | 1.14 | 0.00 | 87 | 1013.7 |
| 20260507063004 | 5 | 256 | 0.0 | 0.0 | 0.00 | 1.14 | 0.00 | 87 | 1013.7 |
| 20260507062504 | 5 | 257 | 0.0 | 0.0 | 0.00 | 1.14 | 0.00 | 87 | 1013.6 |
| 20260507062004 | 5 | 254 | 0.0 | 0.0 | 0.00 | 1.14 | 0.00 | 87 | 1013.5 |
| 20260507061004 | 5 | 254 | 0.0 | 0.0 | 0.00 | 1.14 | 0.00 | 87 | 1013.7 |
| 20260507060004 | 5 | 255 | 0.0 | 0.0 | 0.00 | 1.14 | 0.00 | 86 | 1013.7 |
| 20260507055504 | 5 | 254 | 0.0 | 0.0 | 0.00 | 1.14 | 0.00 | 87 | 1013.7 |
| 20260507055004 | 5 | 256 | 0.0 | 0.0 | 0.00 | 1.14 | 0.00 | 87 | 1013.7 |
| 20260507054504 | 5 | 258 | 0.0 | 0.0 | 0.00 | 1.14 | 0.00 | 86 | 1013.8 |
| 20260507054004 | 5 | 254 | 0.0 | 0.0 | 0.00 | 1.14 | 0.00 | 86 | 1013.6 |
| 20260507053504 | 5 | 258 | 0.0 | 0.0 | 0.00 | 1.17 | 0.00 | 86 | 1013.6 |
| 20260507052504 | 6 | 256 | 0.0 | 0.0 | 0.00 | 1.17 | 0.00 | 86 | 1013.7 |
| 20260507052004 | 6 | 254 | 0.0 | 0.0 | 0.00 | 1.17 | 0.00 | 86 | 1013.8 |
| 20260507051504 | 6 | 254 | 0.0 | 0.0 | 0.00 | 1.17 | 0.00 | 86 | 1013.9 |
| 20260507051004 | 6 | 254 | 0.0 | 0.0 | 0.00 | 1.17 | 0.00 | 86 | 1013.9 |
| 20260507050504 | 6 | 256 | 0.0 | 0.0 | 0.00 | 1.17 | 0.00 | 85 | 1014.0 |
| 20260507050005 | 6 | 254 | 0.0 | 0.0 | 0.00 | 1.17 | 0.00 | 85 | 1013.9 |
| 20260507045504 | 6 | 254 | 0.0 | 0.0 | 0.00 | 1.19 | 0.00 | 85 | 1014.0 |
| 20260507045004 | 6 | 254 | 0.0 | 0.0 | 0.00 | 1.19 | 0.00 | 84 | 1014.0 |
| 20260507044504 | 6 | 256 | 0.0 | 0.0 | 0.00 | 1.19 | 0.00 | 84 | 1013.9 |
| 20260507044004 | 6 | 254 | 0.0 | 0.0 | 0.00 | 1.19 | 0.00 | 84 | 1013.9 |
| 20260507043504 | 6 | 256 | 0.0 | 0.0 | 0.00 | 1.19 | 0.00 | 84 | 1013.9 |
| 20260507043004 | 6 | 254 | 0.0 | 0.0 | 0.00 | 1.19 | 0.00 | 84 | 1014.0 |
| 20260507042004 | 6 | 254 | 0.0 | 0.0 | 0.00 | 1.19 | 0.00 | 85 | 1013.9 |
| 20260507041504 | 7 | 254 | 0.0 | 0.0 | 0.00 | 1.19 | 0.00 | 85 | 1013.8 |
| 20260507041004 | 7 | 254 | 0.0 | 0.0 | 0.00 | 1.19 | 0.00 | 85 | 1013.8 |
| 20260507040504 | 7 | 254 | 0.0 | 0.0 | 0.00 | 1.19 | 0.00 | 84 | 1013.8 |
| 20260507040004 | 7 | 254 | 0.0 | 0.0 | 0.00 | 1.19 | 0.00 | 84 | 1013.8 |
| 20260507035004 | 7 | 254 | 0.0 | 0.0 | 0.00 | 1.19 | 1.19 | 83 | 1013.9 |
| 20260507034505 | 7 | 254 | 0.0 | 0.0 | 0.00 | 1.19 | 1.19 | 82 | 1013.9 |
| 20260507034004 | 7 | 254 | 0.0 | 0.0 | 0.00 | 1.22 | 1.19 | 82 | 1014.0 |
| 20260507033504 | 7 | 254 | 0.0 | 0.0 | 0.00 | 1.22 | 1.19 | 83 | 1013.8 |
| 20260507033004 | 7 | 258 | 0.0 | 0.0 | 0.00 | 1.22 | 1.19 | 82 | 1013.9 |
| 20260507032504 | 7 | 254 | 0.0 | 0.0 | 0.00 | 1.22 | 1.19 | 81 | 1013.8 |
| 20260507032004 | 7 | 254 | 0.0 | 0.0 | 0.00 | 1.22 | 1.19 | 81 | 1013.8 |
| 20260507031504 | 7 | 254 | 0.0 | 0.0 | 0.00 | 1.22 | 1.19 | 81 | 1013.9 |
| 20260507031004 | 7 | 254 | 0.0 | 0.0 | 0.00 | 1.22 | 1.19 | 81 | 1013.9 |
| 20260507030004 | 7 | 254 | 0.0 | 0.0 | 0.00 | 1.22 | 1.19 | 79 | 1014.1 |
| 20260507025504 | 7 | 254 | 0.0 | 0.0 | 0.00 | 1.24 | 1.19 | 79 | 1014.1 |
| 20260507025005 | 8 | 254 | 0.0 | 0.0 | 0.00 | 1.24 | 1.19 | 78 | 1013.9 |
| 20260507024504 | 8 | 254 | 0.0 | 0.0 | 0.00 | 1.24 | 1.19 | 78 | 1014.0 |
| 20260507023505 | 8 | 254 | 0.0 | 0.0 | 0.00 | 1.24 | 1.19 | 78 | 1013.8 |
| 20260507022004 | 8 | 254 | 0.0 | 0.0 | 0.00 | 1.24 | 1.19 | 78 | 1013.9 |
| 20260507021504 | 8 | 254 | 0.0 | 0.0 | 0.00 | 1.24 | 1.19 | 78 | 1013.9 |
| 20260507021004 | 9 | 254 | 0.0 | 0.0 | 0.00 | 1.24 | 1.19 | 78 | 1013.9 |
| 20260507020504 | 9 | 254 | 0.0 | 0.0 | 0.00 | 1.24 | 1.19 | 78 | 1013.8 |
| 20260507020004 | 9 | 254 | 0.0 | 0.0 | 0.00 | 1.24 | 1.19 | 77 | 1013.8 |
| 20260507015504 | 9 | 254 | 0.0 | 0.0 | 0.00 | 1.27 | 1.19 | 74 | 1013.8 |
| 20260507015004 | 9 | 254 | 0.0 | 0.0 | 0.00 | 1.27 | 1.19 | 76 | 1013.7 |
| 20260507014504 | 10 | 254 | 0.0 | 0.0 | 0.00 | 1.27 | 1.19 | 75 | 1013.6 |
| 20260507014005 | 10 | 254 | 0.0 | 0.0 | 0.00 | 1.27 | 1.19 | 74 | 1013.6 |
| 20260507013504 | 10 | 254 | 0.0 | 1.6 | 0.00 | 1.27 | 1.19 | 76 | 1013.4 |
| 20260507012504 | 10 | 254 | 0.0 | 1.6 | 0.00 | 1.27 | 1.19 | 74 | 1013.3 |
| 20260507012004 | 10 | 254 | 0.0 | 3.2 | 0.00 | 1.27 | 1.19 | 72 | 1013.2 |
| 20260507011504 | 10 | 254 | 0.0 | 3.2 | 0.00 | 1.30 | 1.19 | 74 | 1013.4 |
| 20260507010504 | 11 | 50 | 0.0 | 0.0 | 0.00 | 1.30 | 1.19 | 73 | 1013.4 |
| 20260507005504 | 11 | 10 | 0.0 | 0.0 | 0.00 | 1.30 | 1.19 | 69 | 1013.3 |
| 20260507005004 | 11 | 10 | 0.0 | 3.2 | 0.00 | 1.30 | 1.19 | 66 | 1013.1 |
| 20260507004504 | 11 | 10 | 0.0 | 3.2 | 0.00 | 1.30 | 1.19 | 65 | 1013.2 |
| 20260507004004 | 12 | 10 | 0.0 | 1.6 | 0.00 | 1.30 | 1.19 | 64 | 1013.1 |
| 20260507003504 | 12 | 10 | 0.0 | 4.8 | 0.00 | 1.30 | 1.19 | 61 | 1013.3 |
| 20260507003004 | 12 | 7 | 1.6 | 8.0 | 0.00 | 1.30 | 1.19 | 60 | 1012.9 |
| 20260507002504 | 12 | 5 | 3.2 | 8.0 | 0.00 | 1.30 | 1.19 | 59 | 1012.9 |
| 20260507002004 | 12 | 7 | 1.6 | 9.7 | 0.00 | 1.32 | 1.19 | 58 | 1013.0 |
| 20260507001504 | 12 | 2 | 4.8 | 9.7 | 0.00 | 1.32 | 1.19 | 58 | 1013.1 |
| 20260507000504 | 13 | 3 | 4.8 | 12.9 | 0.00 | 1.32 | 1.19 | 56 | 1012.6 |
| 20260507000004 | 13 | 12 | 4.8 | 14.5 | 0.00 | 1.32 | 1.19 | 57 | 1012.6 |
| 20260506235505 | 13 | 0 | 8.0 | 14.5 | 0.00 | 1.32 | 1.19 | 55 | 1012.4 |
| 20260506234504 | 13 | 4 | 8.0 | 19.3 | 0.00 | 1.35 | 1.19 | 55 | 1012.5 |
| 20260506234004 | 13 | 6 | 9.7 | 19.3 | 0.00 | 1.35 | 1.19 | 55 | 1012.5 |
| 20260506233504 | 13 | 19 | 4.8 | 14.5 | 0.00 | 1.35 | 1.19 | 54 | 1012.4 |
| 20260506233004 | 13 | 15 | 8.0 | 14.5 | 0.00 | 1.35 | 1.19 | 54 | 1012.4 |
| 20260506232504 | 13 | 9 | 4.8 | 19.3 | 0.00 | 1.35 | 1.19 | 54 | 1012.2 |
| 20260506232004 | 13 | 22 | 9.7 | 19.3 | 0.00 | 1.35 | 1.19 | 55 | 1012.2 |
| 20260506231504 | 13 | 7 | 6.4 | 19.3 | 0.00 | 1.35 | 1.19 | 54 | 1012.1 |
| 20260506231004 | 13 | 5 | 11.3 | 19.3 | 0.00 | 1.35 | 1.19 | 53 | 1012.3 |
| 20260506230504 | 13 | 4 | 8.0 | 19.3 | 0.00 | 1.35 | 1.19 | 53 | 1012.3 |
| 20260506230004 | 13 | 5 | 11.3 | 16.1 | 0.00 | 1.37 | 1.19 | 55 | 1012.4 |
| 20260506225503 | 13 | 21 | 6.4 | 19.3 | 0.00 | 1.37 | 1.19 | 56 | 1012.3 |
| 20260506225004 | 13 | 1 | 11.3 | 19.3 | 0.00 | 1.37 | 1.19 | 54 | 1012.4 |
| 20260506224504 | 13 | 10 | 4.8 | 14.5 | 0.00 | 1.37 | 1.19 | 57 | 1012.5 |
| 20260506224004 | 13 | 6 | 4.8 | 16.1 | 0.00 | 1.37 | 1.19 | 56 | 1012.6 |
| 20260506223504 | 13 | 8 | 8.0 | 16.1 | 0.00 | 1.37 | 1.19 | 55 | 1012.6 |
| 20260506223004 | 13 | 2 | 9.7 | 19.3 | 0.00 | 1.37 | 1.19 | 55 | 1012.7 |
| 20260506222504 | 13 | 3 | 9.7 | 19.3 | 0.00 | 1.40 | 1.19 | 55 | 1012.7 |
| 20260506221005 | 13 | 1 | 9.7 | 19.3 | 0.00 | 1.40 | 1.19 | 57 | 1012.7 |
| 20260506220004 | 13 | 14 | 11.3 | 20.9 | 0.00 | 1.40 | 1.19 | 55 | 1012.8 |
| 20260506215504 | 13 | 349 | 4.8 | 19.3 | 0.00 | 1.40 | 1.19 | 57 | 1012.8 |
| 20260506215005 | 13 | 350 | 8.0 | 19.3 | 0.00 | 1.40 | 1.19 | 56 | 1012.6 |
| 20260506214504 | 13 | 353 | 4.8 | 19.3 | 0.00 | 1.40 | 1.19 | 57 | 1012.6 |
| 20260506214004 | 13 | 2 | 8.0 | 16.1 | 0.00 | 1.40 | 1.19 | 55 | 1012.5 |
| 20260506213504 | 13 | 5 | 8.0 | 16.1 | 0.00 | 1.40 | 1.19 | 54 | 1012.5 |
| 20260506213004 | 13 | 343 | 8.0 | 19.3 | 0.00 | 1.40 | 1.19 | 54 | 1012.5 |
| 20260506212504 | 13 | 3 | 9.7 | 20.9 | 0.00 | 1.40 | 1.19 | 53 | 1012.3 |
| 20260506212004 | 13 | 355 | 14.5 | 20.9 | 0.00 | 1.42 | 1.19 | 53 | 1012.2 |
| 20260506211504 | 13 | 17 | 11.3 | 19.3 | 0.00 | 1.42 | 1.19 | 52 | 1012.2 |
| 20260506211004 | 14 | 1 | 9.7 | 19.3 | 0.00 | 1.42 | 1.19 | 52 | 1012.3 |
| 20260506210504 | 14 | 346 | 8.0 | 20.9 | 0.00 | 1.42 | 1.19 | 53 | 1012.2 |
| 20260506210004 | 14 | 331 | 11.3 | 20.9 | 0.00 | 1.42 | 1.19 | 54 | 1012.1 |
| 20260506204504 | 14 | 4 | 9.7 | 19.3 | 0.00 | 1.42 | 1.19 | 53 | 1012.2 |
| 20260506204004 | 14 | 4 | 8.0 | 16.1 | 0.00 | 1.45 | 1.19 | 54 | 1012.2 |
| 20260506203504 | 14 | 15 | 4.8 | 19.3 | 0.00 | 1.45 | 1.19 | 59 | 1012.2 |
| 20260506203004 | 14 | 1 | 8.0 | 19.3 | 0.00 | 1.45 | 1.19 | 55 | 1012.2 |
| 20260506202503 | 14 | 341 | 14.5 | 19.3 | 0.00 | 1.47 | 1.19 | 55 | 1012.1 |
| 20260506201504 | 14 | 354 | 9.7 | 19.3 | 0.00 | 1.60 | 1.19 | 56 | 1012.2 |
| 20260506200504 | 14 | 329 | 14.5 | 25.7 | 0.00 | 1.60 | 1.19 | 55 | 1012.3 |
| 20260506200004 | 14 | 1 | 11.3 | 25.7 | 0.00 | 1.60 | 1.19 | 54 | 1012.3 |
| 20260506195504 | 14 | 350 | 16.1 | 25.7 | 0.00 | 1.60 | 1.19 | 55 | 1012.3 |
| 20260506195004 | 14 | 0 | 16.1 | 24.1 | 0.00 | 1.60 | 1.19 | 56 | 1012.2 |
| 20260506194505 | 15 | 324 | 12.9 | 24.1 | 0.00 | 1.60 | 1.19 | 55 | 1012.0 |
| 20260506194004 | 15 | 336 | 16.1 | 24.1 | 0.00 | 1.60 | 1.19 | 55 | 1011.9 |
| 20260506193504 | 15 | 331 | 8.0 | 20.9 | 0.00 | 1.60 | 1.19 | 54 | 1011.8 |
| 20260506193004 | 15 | 308 | 8.0 | 19.3 | 0.00 | 1.60 | 1.19 | 53 | 1011.9 |
| 20260506192504 | 15 | 336 | 8.0 | 19.3 | 0.00 | 1.60 | 1.19 | 55 | 1011.9 |
| 20260506191504 | 15 | 350 | 9.7 | 19.3 | 0.00 | 1.60 | 1.19 | 53 | 1012.0 |
| 20260506190505 | 15 | 334 | 8.0 | 20.9 | 0.00 | 1.60 | 1.19 | 51 | 1011.9 |
| 20260506190004 | 15 | 8 | 4.8 | 16.1 | 0.00 | 1.60 | 1.19 | 54 | 1011.7 |
| 20260506185504 | 15 | 31 | 9.7 | 24.1 | 0.00 | 1.60 | 1.19 | 51 | 1011.7 |
| 20260506185004 | 15 | 320 | 11.3 | 25.7 | 0.00 | 1.60 | 1.19 | 53 | 1011.8 |
| 20260506183503 | 15 | 43 | 4.8 | 19.3 | 0.00 | 1.60 | 1.19 | 53 | 1011.8 |
| 20260506183004 | 15 | 23 | 4.8 | 16.1 | 0.00 | 1.60 | 1.19 | 54 | 1011.9 |
| 20260506181504 | 14 | 355 | 8.0 | 16.1 | 0.00 | 1.60 | 1.19 | 59 | 1011.9 |
| 20260506181004 | 14 | 349 | 9.7 | 16.1 | 0.00 | 1.60 | 1.19 | 58 | 1011.8 |
| 20260506180503 | 14 | 49 | 4.8 | 14.5 | 0.00 | 1.60 | 1.19 | 60 | 1011.9 |
| 20260506180005 | 13 | 42 | 6.4 | 24.1 | 0.00 | 1.60 | 1.19 | 58 | 1012.1 |
| 20260506175503 | 13 | 6 | 12.9 | 24.1 | 0.00 | 1.60 | 1.19 | 56 | 1012.1 |
| 20260506175004 | 13 | 345 | 17.7 | 22.5 | 0.00 | 1.60 | 1.19 | 55 | 1012.2 |
| 20260506173005 | 13 | 334 | 9.7 | 19.3 | 0.00 | 1.60 | 1.19 | 56 | 1012.2 |
| 20260506172505 | 13 | 40 | 8.0 | 19.3 | 0.00 | 1.60 | 1.19 | 56 | 1012.2 |
| 20260506172004 | 13 | 328 | 1.6 | 20.9 | 0.00 | 1.60 | 1.19 | 59 | 1012.2 |
| 20260506171504 | 13 | 10 | 11.3 | 20.9 | 0.00 | 1.60 | 1.19 | 56 | 1012.3 |
| 20260506171005 | 13 | 34 | 4.8 | 20.9 | 0.00 | 1.60 | 1.19 | 54 | 1012.2 |
| 20260506170004 | 13 | 16 | 9.7 | 24.1 | 0.03 | 1.60 | 1.19 | 53 | 1012.3 |
| 20260506165504 | 13 | 0 | 6.4 | 24.1 | 0.08 | 1.60 | 1.19 | 55 | 1012.3 |
| 20260506165004 | 13 | 48 | 8.0 | 19.3 | 0.15 | 1.60 | 1.19 | 58 | 1012.3 |
| 20260506164504 | 12 | 4 | 6.4 | 19.3 | 0.23 | 1.60 | 1.19 | 56 | 1012.3 |
| 20260506164004 | 12 | 30 | 9.7 | 19.3 | 0.33 | 1.60 | 1.19 | 56 | 1012.3 |
| 20260506163504 | 12 | 349 | 8.0 | 19.3 | 0.43 | 1.60 | 1.19 | 60 | 1012.3 |
| 20260506163005 | 12 | 12 | 11.3 | 19.3 | 0.51 | 1.60 | 1.19 | 58 | 1012.4 |
| 20260506162005 | 12 | 55 | 4.8 | 12.9 | 0.66 | 1.60 | 1.19 | 63 | 1012.1 |
| 20260506161504 | 12 | 9 | 4.8 | 16.1 | 0.71 | 1.60 | 1.19 | 63 | 1012.1 |
| 20260506160504 | 12 | 40 | 8.0 | 19.3 | 0.79 | 1.60 | 1.19 | 64 | 1012.1 |
| 20260506160004 | 12 | 7 | 8.0 | 14.5 | 0.81 | 1.57 | 1.17 | 63 | 1012.1 |
| 20260506155504 | 12 | 11 | 3.2 | 19.3 | 0.76 | 1.52 | 1.12 | 67 | 1012.2 |
| 20260506155004 | 11 | 45 | 9.7 | 19.3 | 0.71 | 1.45 | 1.04 | 66 | 1012.4 |
| 20260506154504 | 11 | 43 | 9.7 | 22.5 | 0.66 | 1.37 | 0.97 | 64 | 1012.4 |
| 20260506154004 | 11 | 13 | 11.3 | 22.5 | 0.58 | 1.27 | 0.86 | 65 | 1012.5 |
| 20260506153504 | 11 | 359 | 4.8 | 22.5 | 0.51 | 1.17 | 0.76 | 69 | 1012.3 |
| 20260506153004 | 11 | 26 | 6.4 | 16.1 | 0.43 | 1.09 | 0.69 | 69 | 1012.1 |
| 20260506152504 | 11 | 27 | 9.7 | 19.3 | 0.36 | 1.02 | 0.61 | 69 | 1012.1 |
| 20260506152004 | 11 | 31 | 9.7 | 19.3 | 0.30 | 0.94 | 0.53 | 68 | 1012.2 |
| 20260506150004 | 10 | 13 | 3.2 | 14.5 | 0.15 | 0.76 | 0.36 | 77 | 1011.8 |
| 20260506145005 | 10 | 351 | 9.7 | 19.3 | 0.15 | 0.74 | 0.33 | 75 | 1011.4 |
| 20260506144505 | 10 | 51 | 4.8 | 16.1 | 0.13 | 0.71 | 0.30 | 75 | 1011.4 |
| 20260506144004 | 10 | 347 | 9.7 | 19.3 | 0.10 | 0.69 | 0.28 | 75 | 1011.5 |
| 20260506143004 | 10 | 16 | 14.5 | 22.5 | 0.08 | 0.66 | 0.25 | 75 | 1011.2 |
| 20260506142504 | 10 | 356 | 14.5 | 19.3 | 0.08 | 0.66 | 0.25 | 76 | 1011.1 |
| 20260506141004 | 9 | 348 | 8.0 | 19.3 | 0.03 | 0.61 | 0.20 | 78 | 1011.2 |
| 20260506140504 | 9 | 347 | 9.7 | 16.1 | 0.03 | 0.61 | 0.20 | 79 | 1011.1 |
| 20260506140004 | 9 | 36 | 8.0 | 16.1 | 0.05 | 0.61 | 0.20 | 78 | 1011.1 |
| 20260506135504 | 9 | 343 | 6.4 | 20.9 | 0.05 | 0.61 | 0.20 | 79 | 1011.1 |
| 20260506135004 | 9 | 50 | 9.7 | 20.9 | 0.03 | 0.58 | 0.18 | 79 | 1011.2 |
| 20260506134004 | 8 | 15 | 9.7 | 16.1 | 0.03 | 0.58 | 0.18 | 79 | 1010.8 |
| 20260506133504 | 8 | 12 | 8.0 | 19.3 | 0.03 | 0.58 | 0.18 | 81 | 1010.7 |
| 20260506133004 | 8 | 27 | 8.0 | 19.3 | 0.03 | 0.58 | 0.18 | 80 | 1010.7 |
| 20260506132503 | 8 | 34 | 8.0 | 19.3 | 0.03 | 0.58 | 0.18 | 80 | 1010.8 |
| 20260506131504 | 8 | 3 | 8.0 | 22.5 | 0.03 | 0.58 | 0.18 | 81 | 1010.6 |
| 20260506131004 | 8 | 11 | 11.3 | 22.5 | 0.03 | 0.58 | 0.18 | 80 | 1010.5 |
| 20260506130504 | 8 | 359 | 8.0 | 19.3 | 0.03 | 0.58 | 0.18 | 82 | 1010.5 |
| 20260506130005 | 8 | 5 | 8.0 | 19.3 | 0.00 | 0.56 | 0.15 | 82 | 1010.7 |
| 20260506125504 | 8 | 9 | 8.0 | 19.3 | 0.00 | 0.56 | 0.15 | 84 | 1010.7 |
| 20260506125004 | 8 | 8 | 4.8 | 19.3 | 0.00 | 0.56 | 0.15 | 85 | 1010.7 |
| 20260506124504 | 7 | 14 | 9.7 | 19.3 | 0.00 | 0.56 | 0.15 | 84 | 1010.6 |
| 20260506124005 | 7 | 356 | 9.7 | 19.3 | 0.00 | 0.56 | 0.15 | 84 | 1010.4 |
| 20260506123504 | 7 | 354 | 11.3 | 19.3 | 0.00 | 0.56 | 0.15 | 85 | 1010.4 |
| 20260506122504 | 7 | 4 | 8.0 | 12.9 | 0.00 | 0.56 | 0.15 | 86 | 1010.4 |
| 20260506122004 | 7 | 1 | 8.0 | 12.9 | 0.00 | 0.56 | 0.15 | 86 | 1010.2 |
| 20260506121004 | 7 | 16 | 1.6 | 12.9 | 0.00 | 0.56 | 0.15 | 86 | 1009.8 |
| 20260506120504 | 7 | 8 | 4.8 | 12.9 | 0.00 | 0.56 | 0.15 | 86 | 1009.6 |
| 20260506120004 | 7 | 3 | 1.6 | 9.7 | 0.00 | 0.56 | 0.15 | 86 | 1009.6 |
| 20260506115503 | 7 | 358 | 4.8 | 9.7 | 0.00 | 0.56 | 0.15 | 86 | 1009.6 |
| 20260506114504 | 7 | 0 | 4.8 | 11.3 | 0.03 | 0.56 | 0.15 | 86 | 1009.5 |
| 20260506113004 | 7 | 11 | 4.8 | 14.5 | 0.03 | 0.56 | 0.15 | 87 | 1009.2 |
| 20260506112504 | 7 | 2 | 8.0 | 14.5 | 0.03 | 0.56 | 0.15 | 87 | 1009.1 |
| 20260506112004 | 7 | 133 | 4.8 | 14.5 | 0.03 | 0.56 | 0.15 | 87 | 1009.4 |
| 20260506111504 | 7 | 357 | 6.4 | 14.5 | 0.03 | 0.56 | 0.15 | 87 | 1009.2 |
| 20260506111005 | 7 | 356 | 4.8 | 16.1 | 0.03 | 0.56 | 0.15 | 87 | 1008.6 |
| 20260506110504 | 7 | 3 | 9.7 | 16.1 | 0.03 | 0.56 | 0.15 | 87 | 1008.6 |